EHI
31 31 32 32 32 30 28 27 27 27 26 25 23 21 20 17 14 11 11 11 11 10 7 5 3 3 3 2 2 1 0 0 0 0 0 0 0 0 0 0 0 1 1
30 30 32 33 32 29 27 27 28 28 29 28 25 23 23 21 16 12 12 12 12 11 8 6 5 5 4 3 2 1 1 0 0 1 1 0 0 0 0 0 0 0 1
28 30 34 35 31 27 26 27 28 29 29 29 28 27 27 24 19 15 15 15 15 14 12 10 9 8 7 5 3 2 2 1 1 2 2 2 2 1 1 0 0 0 0
28 30 34 35 31 27 27 28 28 28 28 28 28 26 25 22 18 17 18 18 17 17 17 15 13 11 9 6 3 1 2 2 3 3 3 4 3 3 2 1 0 0 0
31 31 33 33 31 29 29 29 28 28 27 25 23 21 19 17 16 16 17 17 16 18 18 17 15 13 10 6 2 0 1 2 3 4 4 4 4 4 4 2 1 1 1
33 32 30 31 31 28 27 28 29 27 26 23 19 16 15 14 15 16 16 14 14 15 17 17 16 15 11 7 4 2 2 2 4 5 5 5 4 5 5 3 3 2 1
31 30 26 25 26 25 25 27 28 26 24 21 17 15 13 13 14 15 15 14 13 14 15 15 15 14 12 10 8 5 4 5 6 6 5 5 5 6 6 5 4 3 1
27 24 20 18 20 21 22 24 26 26 24 22 18 15 13 11 12 13 14 13 13 15 14 12 11 12 12 11 10 8 6 7 7 6 4 4 5 8 8 7 5 3 1
23 19 15 14 16 18 19 22 24 25 25 24 21 16 13 11 10 11 11 12 13 15 14 10 9 10 10 9 9 8 8 9 9 7 6 5 5 7 7 7 6 3 2
20 17 13 13 15 16 19 22 23 23 24 25 23 19 15 13 11 10 10 10 10 13 14 11 9 9 8 7 7 8 9 9 9 9 8 7 6 5 6 6 5 4 3
17 15 13 13 14 15 17 20 21 21 21 24 24 20 16 13 10 9 9 8 8 10 12 12 11 9 7 6 6 7 7 9 9 10 9 8 7 6 6 5 4 3 3
13 13 13 13 12 11 12 15 17 18 18 20 21 19 15 12 10 8 7 6 6 8 12 12 10 8 7 6 6 6 7 7 8 9 9 8 7 7 6 5 3 3 2
9 11 13 12 10 9 9 10 12 15 16 16 17 16 14 11 9 8 8 7 7 9 12 11 8 5 6 6 6 6 6 6 6 7 7 6 6 7 6 3 2 1 1
8 11 12 12 11 11 9 8 9 12 15 16 15 15 14 12 10 9 9 9 10 12 14 11 6 3 4 5 5 5 6 5 4 3 3 3 5 6 5 2 1 1 2
11 12 12 12 12 11 9 8 9 11 15 17 16 15 15 13 11 10 10 10 10 13 15 11 6 2 2 2 2 3 4 3 1 1 1 1 3 4 3 2 1 1 2
15 13 12 12 12 11 10 9 8 10 13 15 16 16 16 14 12 11 11 10 10 12 13 11 6 3 1 0 0 1 2 1 1 1 0 1 2 3 2 1 1 0 1
14 13 11 11 11 10 9 8 8 10 11 12 14 15 15 14 12 10 10 9 9 10 10 10 8 5 2 1 0 0 0 1 2 2 1 0 1 2 2 2 1 0 0
9 9 9 9 9 9 8 8 8 10 11 12 12 13 13 12 11 9 7 7 8 8 9 10 9 6 3 1 0 0 0 1 2 3 2 1 0 1 1 2 1 0 0
5 6 7 7 7 6 7 8 9 10 12 11 10 11 11 10 10 7 5 5 7 8 9 9 8 6 4 2 0 0 0 1 2 3 3 1 0 0 0 1 1 0 0
4 5 5 4 4 4 5 6 7 8 8 8 8 9 10 10 9 8 5 4 6 8 8 7 6 5 4 2 1 0 0 1 2 3 4 2 0 0 0 0 0 0 0
4 4 3 3 3 3 4 4 4 4 4 4 5 8 9 9 9 8 6 4 5 7 7 5 4 3 3 2 1 0 0 1 1 3 4 3 1 0 0 0 0 0 0
4 4 4 4 3 4 3 3 2 1 1 1 3 6 8 9 9 9 7 5 4 6 5 3 2 2 2 1 0 0 0 0 0 1 3 2 1 0 0 0 0 0 0
6 6 6 5 4 5 4 3 1 0 0 0 2 5 6 7 8 8 8 6 4 5 5 3 1 1 1 0 0 0 0 0 0 0 1 1 0 0 0 0 0 0 0
6 7 7 6 6 6 6 5 3 1 0 0 1 4 5 6 6 6 6 5 4 5 5 3 1 0 0 0 0 0 0 0 0 0 0 0 0 0 0 0 0 0 0
6 5 5 6 6 6 6 6 5 4 2 0 1 3 3 3 4 4 4 4 4 4 4 3 1 0 0 0 0 0 0 0 0 0 0 0 0 0 0 0 0 0 0
4 4 4 5 6 6 6 6 6 5 3 1 1 2 1 1 3 3 3 3 3 3 2 2 1 0 0 0 0 0 0 0 0 0 0 0 0 0 0 0 0 0 0
Wind_Speed
7 8 9 9 9 7 7 6 6 5 4 4 4 3 3 2 2 2 3 3 3 3 3 2 2 2 2 2 2 1 1 0 0 1 2 2 1 1 2 2 2 3 4
6 7 8 8 7 8 7 6 5 5 5 4 3 3 3 2 2 1 2 3 3 3 4 3 2 2 2 1 1 2 1 0 1 2 1 2 3 3 2 1 2 2 2
9 9 9 8 8 8 7 7 6 5 4 4 3 3 2 2 1 1 1 2 3 3 2 3 2 2 3 2 2 2 3 1 0 1 3 2 2 2 2 1 1 1 1
8 8 9 9 9 7 6 6 5 5 3 4 4 5 3 2 2 2 1 1 2 2 2 2 2 2 2 2 2 2 2 3 1 0 1 2 3 2 1 2 2 1 1
9 9 9 9 8 7 6 6 6 6 4 4 4 4 3 2 1 1 2 1 1 1 2 3 2 2 1 2 2 1 2 2 2 1 1 0 0 1 2 1 3 2 2
8 7 6 7 6 5 6 6 6 5 5 5 5 4 4 3 3 2 2 1 0 0 1 2 2 2 2 2 2 2 2 2 2 1 1 2 1 1 2 2 2 2 2
8 7 6 6 6 6 7 6 6 5 4 5 4 4 4 4 4 3 3 2 1 1 2 2 2 2 2 2 2 1 1 2 2 2 1 1 2 2 2 2 1 1 2
7 7 6 6 7 7 7 6 6 5 5 5 4 3 3 3 2 3 3 3 3 3 2 3 2 2 2 2 2 1 2 1 1 2 2 1 1 1 2 3 3 0 1
8 7 6 5 5 7 6 7 7 5 5 5 4 3 3 3 3 2 3 2 2 2 3 3 3 3 3 3 2 2 2 1 1 2 2 2 1 1 1 2 3 3 2
7 6 5 5 5 5 5 5 5 5 4 4 4 3 3 3 3 3 3 3 3 2 2 3 3 3 3 3 2 2 2 2 2 2 1 1 1 1 1 1 1 2 3
7 6 5 5 5 5 5 4 4 3 3 3 3 3 3 2 2 3 3 3 3 3 3 3 3 3 3 3 3 3 2 2 2 2 1 2 1 1 1 1 1 1 2
6 6 6 5 5 5 4 3 3 3 4 3 3 3 2 2 2 2 3 3 3 3 4 4 4 4 4 3 4 4 3 3 3 2 2 2 2 1 1 1 1 1 2
6 6 6 5 5 4 4 3 2 2 3 3 3 2 2 2 2 3 3 3 3 3 3 4 4 4 4 4 4 4 4 4 4 3 3 3 2 2 2 2 2 1 1
7 6 5 4 4 4 4 3 2 1 3 3 3 3 2 3 3 3 3 3 3 3 3 4 4 4 4 4 3 3 3 3 3 3 4 4 4 4 3 2 2 2 1
7 7 5 4 4 3 3 3 2 1 2 2 3 3 3 2 2 2 2 3 3 3 3 3 3 3 3 4 4 4 4 3 3 3 3 3 4 5 4 3 3 2 2
6 6 5 4 4 4 3 3 2 2 2 2 2 2 2 2 2 2 2 2 2 3 3 3 4 4 3 4 5 4 3 3 3 3 3 3 3 4 4 4 4 5 4
5 5 5 5 4 3 3 2 2 1 2 2 2 2 3 3 3 3 2 2 2 3 4 4 4 4 5 6 6 6 4 4 4 4 3 3 3 3 2 3 4 4 5
5 5 4 3 3 3 2 2 2 2 2 1 1 2 2 2 2 2 3 3 2 3 3 4 4 4 5 6 7 6 4 4 4 4 4 4 3 3 3 3 2 3 3
4 4 3 3 3 3 3 3 2 1 1 1 1 2 2 2 2 2 3 3 2 3 3 3 4 4 5 6 7 6 3 3 4 4 4 4 4 5 5 3 3 2 3
2 3 3 2 2 2 2 3 2 1 1 2 2 2 3 3 3 4 4 3 3 3 3 3 3 3 4 5 6 6 3 3 3 2 2 4 5 5 6 5 4 4 5
3 3 3 2 2 2 3 2 1 1 2 2 2 2 3 3 4 3 3 2 2 2 2 3 3 3 4 4 5 6 3 3 3 3 2 3 5 6 7 6 5 7 5
2 2 2 2 1 2 3 2 2 3 1 1 2 2 3 3 2 2 3 2 2 2 2 2 2 2 3 3 4 6 6 4 3 3 3 4 6 6 7 6 6 7 5
2 2 2 2 1 1 2 3 3 2 1 1 2 3 3 3 2 2 3 2 2 2 3 2 2 2 2 2 4 5 6 6 3 3 5 5 6 5 5 7 7 5 3
2 2 2 2 2 2 2 3 3 2 2 2 3 3 2 3 2 2 2 2 2 2 3 3 3 2 2 2 2 2 2 4 3 2 3 4 4 3 4 4 4 3 3
2 2 3 3 4 3 3 3 2 2 2 2 2 2 2 2 2 2 2 3 3 4 4 3 3 4 4 5 6 4 3 3 3 2 0 0 1 2 2 2 2 2 2
3 2 3 3 4 3 3 3 2 2 2 2 2 2 2 2 2 2 2 3 3 4 4 5 4 4 5 5 6 6 5 4 5 3 2 2 2 3 3 2 2 2 2
Wind_Direction
148 142 144 140 135 133 140 142 145 153 150 150 156 152 161 167 165 166 162 164 172 169 166 172 166 152 156 183 169 148 96 350 100 71 358 335 311 241 226 221 204 213 216
140 141 139 136 138 144 145 144 151 154 160 163 168 161 153 164 178 165 153 166 171 171 173 169 175 173 167 170 167 150 151 259 112 128 105 354 338 323 269 229 203 208 200
159 152 144 148 150 151 153 153 153 148 153 145 124 108 91 89 92 88 155 192 177 167 163 163 162 173 169 185 194 172 161 176 270 138 145 151 227 292 319 305 207 195 193
151 151 151 154 157 160 156 147 139 130 128 127 137 140 143 155 184 176 171 191 176 162 158 156 158 168 169 181 200 177 165 153 186 266 176 168 165 161 306 323 314 291 215
156 155 155 155 156 155 152 144 132 131 136 137 142 142 140 149 131 117 120 135 156 161 159 153 149 157 168 172 167 156 157 162 169 181 181 132 109 138 150 275 311 327 295
151 150 145 136 134 139 138 136 135 137 146 150 150 148 153 146 130 144 162 176 187 192 175 158 161 167 174 178 172 163 158 172 169 176 170 161 161 188 167 200 251 276 287
149 142 143 148 147 147 144 142 144 149 157 155 157 163 172 166 163 170 184 185 186 205 213 180 181 184 192 190 169 161 173 174 173 192 204 193 196 176 168 167 209 254 288
149 150 157 161 163 158 153 152 157 160 164 161 165 169 170 165 175 174 179 196 201 205 203 194 199 200 190 188 175 183 199 170 192 217 214 206 223 185 173 169 160 161 308
150 151 151 149 157 157 160 160 160 159 166 166 167 174 166 170 182 187 186 192 207 203 197 193 201 208 198 186 174 190 205 187 202 225 224 218 228 204 195 168 161 161 199
145 144 144 139 142 153 151 152 155 165 164 163 167 166 177 180 186 185 191 192 204 208 195 194 201 201 198 196 182 190 199 191 217 214 208 228 235 222 180 171 169 168 175
145 143 143 136 124 119 126 140 152 148 155 166 164 165 181 186 181 191 206 202 202 199 198 202 204 199 192 191 183 193 194 200 226 232 219 236 226 218 200 163 158 175 166
143 138 132 123 113 111 113 123 139 156 171 173 166 175 176 175 194 211 224 214 205 203 200 198 202 200 195 191 191 204 203 203 215 225 211 234 225 216 207 181 194 200 180
134 127 124 128 129 129 128 128 136 165 169 158 160 171 181 191 217 230 239 225 211 207 203 196 200 203 202 194 198 202 205 209 214 214 212 221 208 225 221 201 202 206 190
135 133 135 145 143 144 146 138 128 152 164 159 163 174 197 211 224 228 234 233 221 213 211 205 201 202 203 197 201 203 204 207 218 219 216 214 206 215 214 209 216 207 191
136 142 145 147 146 141 140 134 139 165 169 163 175 198 209 213 219 231 239 236 226 221 217 208 207 207 201 204 200 201 203 206 221 226 223 220 213 209 207 201 201 192 190
144 144 142 144 149 152 148 144 158 181 174 179 200 204 202 207 217 232 236 239 231 221 213 213 209 214 219 208 203 197 205 208 209 220 229 229 219 223 223 215 205 190 189
142 141 150 158 161 164 158 149 164 170 153 188 207 207 213 219 224 229 231 237 236 224 216 217 211 215 223 215 210 206 199 207 213 214 217 228 224 214 213 226 229 230 225
140 145 145 146 151 151 145 147 147 143 158 186 212 211 215 230 238 226 226 238 238 234 227 222 219 219 230 222 218 211 206 212 222 219 211 212 222 223 206 205 223 243 245
152 152 154 148 138 142 143 133 138 143 154 195 222 225 215 221 237 240 238 236 234 243 237 224 217 220 236 228 219 203 197 218 233 230 221 208 213 227 206 188 209 252 272
131 129 123 108 120 142 127 118 137 153 207 229 228 229 218 218 229 235 238 233 230 237 237 227 216 218 231 227 215 199 189 209 233 237 228 220 219 225 206 195 200 229 251
131 126 124 133 169 157 122 122 153 224 245 248 241 243 232 227 227 228 230 240 243 244 236 232 234 228 224 222 216 194 181 202 215 224 229 240 233 232 222 213 213 227 234
121 126 134 161 192 158 140 156 232 248 255 263 268 265 256 249 251 231 238 238 229 236 241 236 248 242 227 217 221 210 199 193 197 222 228 236 239 237 234 229 233 235 225
179 160 160 176 209 202 170 189 240 245 240 268 275 276 279 268 250 227 234 245 229 217 231 224 231 246 245 233 225 218 209 206 203 225 234 242 246 249 248 242 238 229 209
211 192 181 194 221 229 214 215 237 235 217 243 265 272 279 279 279 255 235 231 234 224 226 219 224 237 240 235 228 220 217 220 221 238 246 246 249 255 252 255 246 225 207
230 203 192 207 229 233 235 235 233 223 228 248 262 271 267 266 270 272 261 246 241 227 219 218 208 209 225 230 215 203 208 208 204 172 149 250 282 285 283 273 259 235 213
217 214 216 225 237 233 241 249 238 214 213 244 258 251 255 268 265 269 308 321 293 273 241 222 212 226 226 215 212 217 213 198 173 152 186 218 228 237 243 245 252 240 225